Year,Month,Day,Hour,Minute,Value (Times are PST for temperature in C)
2008,01,27,00,00,0.80
2008,01,27,00,01,0.80
2008,01,27,00,02,0.80
2008,01,27,00,03,0.70
2008,01,27,00,04,0.70
2008,01,27,00,05,0.70
2008,01,27,00,06,0.70
2008,01,27,00,07,0.70
2008,01,27,00,08,0.60
2008,01,27,00,09,0.70
2008,01,27,00,10,0.60
2008,01,27,00,11,0.60
2008,01,27,00,12,0.60
2008,01,27,00,13,0.60
2008,01,27,00,14,0.60
2008,01,27,00,15,0.60
2008,01,27,00,16,0.60
2008,01,27,00,17,0.50
2008,01,27,00,18,0.50
2008,01,27,00,19,0.50
2008,01,27,00,20,0.40
2008,01,27,00,21,0.40
2008,01,27,00,22,0.40
2008,01,27,00,23,0.40
2008,01,27,00,24,0.40
2008,01,27,00,25,0.40
2008,01,27,00,26,0.30
2008,01,27,00,27,0.30
2008,01,27,00,28,0.30
2008,01,27,00,29,0.30
2008,01,27,00,30,0.20
2008,01,27,00,31,0.20
2008,01,27,00,32,0.20
2008,01,27,00,33,0.20
2008,01,27,00,34,0.10
2008,01,27,00,35,0.10
2008,01,27,00,36,0.10
2008,01,27,00,37,0.10
2008,01,27,00,38,0.10
2008,01,27,00,39,0.10
2008,01,27,00,40,0.10
2008,01,27,00,41,0.10
2008,01,27,00,42,0.10
2008,01,27,00,43,0.10
2008,01,27,00,44,0.10
2008,01,27,00,45,0.10
2008,01,27,00,46,0.10
2008,01,27,00,47,0.10
2008,01,27,00,48,0.00
2008,01,27,00,49,0.00
2008,01,27,00,50,0.00
2008,01,27,00,51,0.00
2008,01,27,00,52,0.00
2008,01,27,00,53,-0.10
2008,01,27,00,54,0.00
2008,01,27,00,55,-0.10
2008,01,27,00,56,0.00
2008,01,27,00,57,0.00
2008,01,27,00,58,0.00
2008,01,27,00,59,0.00
2008,01,27,01,00,0.00
2008,01,27,01,01,0.10
2008,01,27,01,02,0.10
2008,01,27,01,03,0.10
2008,01,27,01,04,0.10
2008,01,27,01,05,0.10
2008,01,27,01,06,0.10
2008,01,27,01,07,0.10
2008,01,27,01,08,0.20
2008,01,27,01,09,0.20
2008,01,27,01,10,0.30
2008,01,27,01,11,0.30
2008,01,27,01,12,0.40
2008,01,27,01,13,0.50
2008,01,27,01,14,0.60
2008,01,27,01,15,0.70
2008,01,27,01,16,0.70
2008,01,27,01,17,0.70
2008,01,27,01,18,0.70
2008,01,27,01,19,0.80
2008,01,27,01,20,0.80
2008,01,27,01,21,0.90
2008,01,27,01,22,0.90
2008,01,27,01,23,0.90
2008,01,27,01,24,0.90
2008,01,27,01,25,1.00
2008,01,27,01,26,1.00
2008,01,27,01,27,1.00
2008,01,27,01,28,1.10
2008,01,27,01,29,1.10
2008,01,27,01,30,1.10
2008,01,27,01,31,1.10
2008,01,27,01,32,1.10
2008,01,27,01,33,1.10
2008,01,27,01,34,1.10
2008,01,27,01,35,1.10
2008,01,27,01,36,1.10
2008,01,27,01,37,1.10
2008,01,27,01,38,1.10
2008,01,27,01,39,1.10
2008,01,27,01,40,1.10
2008,01,27,01,41,1.10
2008,01,27,01,42,1.10
2008,01,27,01,43,1.10
2008,01,27,01,44,1.10
2008,01,27,01,45,1.10
2008,01,27,01,46,1.10
2008,01,27,01,47,1.20
2008,01,27,01,48,1.10
2008,01,27,01,49,1.20
2008,01,27,01,50,1.10
2008,01,27,01,51,1.10
2008,01,27,01,52,1.20
2008,01,27,01,53,1.20
2008,01,27,01,54,1.10
2008,01,27,01,55,1.10
2008,01,27,01,56,1.10
2008,01,27,01,57,1.10
2008,01,27,01,58,1.10
2008,01,27,01,59,1.10
2008,01,27,02,00,1.10
2008,01,27,02,01,1.10
2008,01,27,02,02,1.10
2008,01,27,02,03,1.10
2008,01,27,02,04,1.10
2008,01,27,02,05,1.20
2008,01,27,02,06,1.20
2008,01,27,02,07,1.20
2008,01,27,02,08,1.20
2008,01,27,02,09,1.30
2008,01,27,02,10,1.30
2008,01,27,02,11,1.30
2008,01,27,02,12,1.30
2008,01,27,02,13,1.30
2008,01,27,02,14,1.30
2008,01,27,02,15,1.30
2008,01,27,02,16,1.30
2008,01,27,02,17,1.30
2008,01,27,02,18,1.30
2008,01,27,02,19,1.30
2008,01,27,02,20,1.30
2008,01,27,02,21,1.30
2008,01,27,02,22,1.30
2008,01,27,02,23,1.30
2008,01,27,02,24,1.30
2008,01,27,02,25,1.30
2008,01,27,02,26,1.30
2008,01,27,02,27,1.30
2008,01,27,02,28,1.30
2008,01,27,02,29,1.30
2008,01,27,02,30,1.30
2008,01,27,02,31,1.20
2008,01,27,02,32,1.20
2008,01,27,02,33,1.20
2008,01,27,02,34,1.20
2008,01,27,02,35,1.30
2008,01,27,02,36,1.30
2008,01,27,02,37,1.30
2008,01,27,02,38,1.30
2008,01,27,02,39,1.30
2008,01,27,02,40,1.30
2008,01,27,02,41,1.30
2008,01,27,02,42,1.30
2008,01,27,02,43,1.30
2008,01,27,02,44,1.20
2008,01,27,02,45,1.20
2008,01,27,02,46,1.20
2008,01,27,02,47,1.20
2008,01,27,02,48,1.20
2008,01,27,02,49,1.20
2008,01,27,02,50,1.20
2008,01,27,02,51,1.20
2008,01,27,02,52,1.20
2008,01,27,02,53,1.10
2008,01,27,02,54,1.10
2008,01,27,02,55,1.10
2008,01,27,02,56,1.10
2008,01,27,02,57,1.10
2008,01,27,02,58,1.10
2008,01,27,02,59,1.10
2008,01,27,03,00,1.10
2008,01,27,03,01,1.00
2008,01,27,03,02,1.00
2008,01,27,03,03,1.00
2008,01,27,03,04,1.00
2008,01,27,03,05,0.90
2008,01,27,03,06,0.90
2008,01,27,03,07,0.90
2008,01,27,03,08,0.90
2008,01,27,03,09,0.80
2008,01,27,03,10,0.80
2008,01,27,03,11,0.80
2008,01,27,03,12,0.70
2008,01,27,03,13,0.70
2008,01,27,03,14,0.70
2008,01,27,03,15,0.70
2008,01,27,03,16,0.70
2008,01,27,03,17,0.70
2008,01,27,03,18,0.70
2008,01,27,03,19,0.70
2008,01,27,03,20,0.70
2008,01,27,03,21,0.70
2008,01,27,03,22,0.70
2008,01,27,03,23,0.70
2008,01,27,03,24,0.70
2008,01,27,03,25,0.70
2008,01,27,03,26,0.70
2008,01,27,03,27,0.70
2008,01,27,03,28,0.70
2008,01,27,03,29,0.70
2008,01,27,03,30,0.70
2008,01,27,03,31,0.70
2008,01,27,03,32,0.70
2008,01,27,03,33,0.70
2008,01,27,03,34,0.70
2008,01,27,03,35,0.70
2008,01,27,03,36,0.70
2008,01,27,03,37,0.70
2008,01,27,03,38,0.70
2008,01,27,03,39,0.60
2008,01,27,03,40,0.60
2008,01,27,03,41,0.60
2008,01,27,03,42,0.60
2008,01,27,03,43,0.60
2008,01,27,03,44,0.60
2008,01,27,03,45,0.60
2008,01,27,03,46,0.60
2008,01,27,03,47,0.60
2008,01,27,03,48,0.70
2008,01,27,03,49,0.70
2008,01,27,03,50,0.80
2008,01,27,03,51,0.80
2008,01,27,03,52,0.80
2008,01,27,03,53,0.90
2008,01,27,03,54,0.90
2008,01,27,03,55,1.00
2008,01,27,03,56,1.00
2008,01,27,03,57,1.10
2008,01,27,03,58,1.10
2008,01,27,03,59,1.20
2008,01,27,04,00,1.20
2008,01,27,04,01,1.30
2008,01,27,04,02,1.30
2008,01,27,04,03,1.30
2008,01,27,04,04,1.30
2008,01,27,04,05,1.30
2008,01,27,04,06,1.30
2008,01,27,04,07,1.30
2008,01,27,04,08,1.30
2008,01,27,04,09,1.30
2008,01,27,04,10,1.30
2008,01,27,04,11,1.30
2008,01,27,04,12,1.20
2008,01,27,04,13,1.20
2008,01,27,04,14,1.10
2008,01,27,04,15,1.00
2008,01,27,04,16,1.00
2008,01,27,04,17,0.90
2008,01,27,04,18,0.80
2008,01,27,04,19,0.80
2008,01,27,04,20,0.70
2008,01,27,04,21,0.70
2008,01,27,04,22,0.70
2008,01,27,04,23,0.60
2008,01,27,04,24,0.60
2008,01,27,04,25,0.50
2008,01,27,04,26,0.50
2008,01,27,04,27,0.40
2008,01,27,04,28,0.40
2008,01,27,04,29,0.40
2008,01,27,04,30,0.40
2008,01,27,04,31,0.30
2008,01,27,04,32,0.30
2008,01,27,04,33,0.30
2008,01,27,04,34,0.20
2008,01,27,04,35,0.20
2008,01,27,04,36,0.20
2008,01,27,04,37,0.20
2008,01,27,04,38,0.10
2008,01,27,04,39,0.10
2008,01,27,04,40,0.00
2008,01,27,04,41,0.00
2008,01,27,04,42,0.00
2008,01,27,04,43,-0.10
2008,01,27,04,44,-0.10
2008,01,27,04,45,-0.20
2008,01,27,04,46,-0.20
2008,01,27,04,47,-0.20
2008,01,27,04,48,-0.20
2008,01,27,04,49,-0.20
2008,01,27,04,50,-0.30
2008,01,27,04,51,-0.30
2008,01,27,04,52,-0.30
2008,01,27,04,53,-0.30
2008,01,27,04,54,-0.30
2008,01,27,04,55,-0.40
2008,01,27,04,56,-0.40
2008,01,27,04,57,-0.40
2008,01,27,04,58,-0.40
2008,01,27,04,59,-0.50
2008,01,27,05,00,-0.50
2008,01,27,05,01,-0.50
2008,01,27,05,02,-0.60
2008,01,27,05,03,-0.60
2008,01,27,05,04,-0.60
2008,01,27,05,05,-0.60
2008,01,27,05,06,-0.60
2008,01,27,05,07,-0.60
2008,01,27,05,08,-0.60
2008,01,27,05,09,-0.70
2008,01,27,05,10,-0.70
2008,01,27,05,11,-0.70
2008,01,27,05,12,-0.70
2008,01,27,05,13,-0.70
2008,01,27,05,14,-0.70
2008,01,27,05,15,-0.70
2008,01,27,05,16,-0.80
2008,01,27,05,17,-0.80
2008,01,27,05,18,-0.80
2008,01,27,05,19,-0.90
2008,01,27,05,20,-0.90
2008,01,27,05,21,-0.90
2008,01,27,05,22,-0.90
2008,01,27,05,23,-0.90
2008,01,27,05,24,-0.90
2008,01,27,05,25,-1.00
2008,01,27,05,26,-1.00
2008,01,27,05,27,-1.00
2008,01,27,05,28,-1.00
2008,01,27,05,29,-1.00
2008,01,27,05,30,-1.00
2008,01,27,05,31,-1.00
2008,01,27,05,32,-1.10
2008,01,27,05,33,-1.10
2008,01,27,05,34,-1.10
2008,01,27,05,35,-1.10
2008,01,27,05,36,-1.10
2008,01,27,05,37,-1.10
2008,01,27,05,38,-1.10
2008,01,27,05,39,-1.10
2008,01,27,05,40,-1.10
2008,01,27,05,41,-1.10
2008,01,27,05,42,-1.00
2008,01,27,05,43,-1.00
2008,01,27,05,44,-1.00
2008,01,27,05,45,-1.00
2008,01,27,05,46,-1.10
2008,01,27,05,47,-1.00
2008,01,27,05,48,-1.00
2008,01,27,05,49,-1.00
2008,01,27,05,50,-0.90
2008,01,27,05,51,-0.90
2008,01,27,05,52,-0.90
2008,01,27,05,53,-0.90
2008,01,27,05,54,-0.80
2008,01,27,05,55,-0.80
2008,01,27,05,56,-0.80
2008,01,27,05,57,-0.70
2008,01,27,05,58,-0.70
2008,01,27,05,59,-0.70
2008,01,27,06,00,-0.60
2008,01,27,06,01,-0.60
2008,01,27,06,02,-0.50
2008,01,27,06,03,-0.50
2008,01,27,06,04,-0.40
2008,01,27,06,05,-0.40
2008,01,27,06,06,-0.30
2008,01,27,06,07,-0.20
2008,01,27,06,08,-0.10
2008,01,27,06,09,0.10
2008,01,27,06,10,0.20
2008,01,27,06,11,0.20
2008,01,27,06,12,0.30
2008,01,27,06,13,0.30
2008,01,27,06,14,0.40
2008,01,27,06,15,0.40
2008,01,27,06,16,0.40
2008,01,27,06,17,0.40
2008,01,27,06,18,0.30
2008,01,27,06,19,0.40
2008,01,27,06,20,0.40
2008,01,27,06,21,0.40
2008,01,27,06,22,0.40
2008,01,27,06,23,0.40
2008,01,27,06,24,0.40
2008,01,27,06,25,0.40
2008,01,27,06,26,0.40
2008,01,27,06,27,0.40
2008,01,27,06,28,0.30
2008,01,27,06,29,0.30
2008,01,27,06,30,0.30
2008,01,27,06,31,0.30
2008,01,27,06,32,0.30
2008,01,27,06,33,0.20
2008,01,27,06,34,0.20
2008,01,27,06,35,0.20
2008,01,27,06,36,0.10
2008,01,27,06,37,0.10
2008,01,27,06,38,0.10
2008,01,27,06,39,0.10
2008,01,27,06,40,0.10
2008,01,27,06,41,0.10
2008,01,27,06,42,0.00
2008,01,27,06,43,0.00
2008,01,27,06,44,0.00
2008,01,27,06,45,-0.10
2008,01,27,06,46,-0.10
2008,01,27,06,47,-0.20
2008,01,27,06,48,-0.20
2008,01,27,06,49,-0.30
2008,01,27,06,50,-0.30
2008,01,27,06,51,-0.30
2008,01,27,06,52,-0.40
2008,01,27,06,53,-0.40
2008,01,27,06,54,-0.40
2008,01,27,06,55,-0.50
2008,01,27,06,56,-0.60
2008,01,27,06,57,-0.60
2008,01,27,06,58,-0.70
2008,01,27,06,59,-0.70
2008,01,27,07,00,-0.80
2008,01,27,07,01,-0.80
2008,01,27,07,02,-0.80
2008,01,27,07,03,-0.90
2008,01,27,07,04,-0.90
2008,01,27,07,05,-0.90
2008,01,27,07,06,-1.00
2008,01,27,07,07,-1.00
2008,01,27,07,08,-1.10
2008,01,27,07,09,-1.10
2008,01,27,07,10,-1.10
2008,01,27,07,11,-1.20
2008,01,27,07,12,-1.20
2008,01,27,07,13,-1.30
2008,01,27,07,14,-1.30
2008,01,27,07,15,-1.30
2008,01,27,07,16,-1.40
2008,01,27,07,17,-1.40
2008,01,27,07,18,-1.40
2008,01,27,07,19,-1.40
2008,01,27,07,20,-1.50
2008,01,27,07,21,-1.50
2008,01,27,07,22,-1.50
2008,01,27,07,23,-1.50
2008,01,27,07,24,-1.50
2008,01,27,07,25,-1.60
2008,01,27,07,26,-1.60
2008,01,27,07,27,-1.60
2008,01,27,07,28,-1.60
2008,01,27,07,29,-1.60
2008,01,27,07,30,-1.60
2008,01,27,07,31,-1.60
2008,01,27,07,32,-1.60
2008,01,27,07,33,-1.70
2008,01,27,07,34,-1.70
2008,01,27,07,35,-1.70
2008,01,27,07,36,-1.70
2008,01,27,07,37,-1.70
2008,01,27,07,38,-1.70
2008,01,27,07,39,-1.80
2008,01,27,07,40,-1.80
2008,01,27,07,41,-1.80
2008,01,27,07,42,-1.80
2008,01,27,07,43,-1.80
2008,01,27,07,44,-1.80
2008,01,27,07,45,-1.80
2008,01,27,07,46,-1.80
2008,01,27,07,47,-1.80
2008,01,27,07,48,-1.90
2008,01,27,07,49,-1.90
2008,01,27,07,50,-1.90
2008,01,27,07,51,-1.90
2008,01,27,07,52,-1.90
2008,01,27,07,53,-1.90
2008,01,27,07,54,-1.90
2008,01,27,07,55,-1.90
2008,01,27,07,56,-1.90
2008,01,27,07,57,-1.90
2008,01,27,07,58,-1.90
2008,01,27,07,59,-1.90
2008,01,27,08,00,-1.90
2008,01,27,08,01,-1.90
2008,01,27,08,02,-1.90
2008,01,27,08,03,-1.90
2008,01,27,08,04,-1.90
2008,01,27,08,05,-1.80
2008,01,27,08,06,-1.80
2008,01,27,08,07,-1.80
2008,01,27,08,08,-1.80
2008,01,27,08,09,-1.80
2008,01,27,08,10,-1.80
2008,01,27,08,11,-1.80
2008,01,27,08,12,-1.80
2008,01,27,08,13,-1.80
2008,01,27,08,14,-1.80
2008,01,27,08,15,-1.80
2008,01,27,08,16,-1.70
2008,01,27,08,17,-1.70
2008,01,27,08,18,-1.70
2008,01,27,08,19,-1.70
2008,01,27,08,20,-1.80
2008,01,27,08,21,-1.80
2008,01,27,08,22,-1.80
2008,01,27,08,23,-1.80
2008,01,27,08,24,-1.90
2008,01,27,08,25,-1.90
2008,01,27,08,26,-1.90
2008,01,27,08,27,-1.90
2008,01,27,08,28,-1.90
2008,01,27,08,29,-2.00
2008,01,27,08,30,-2.00
2008,01,27,08,31,-2.00
2008,01,27,08,32,-2.00
2008,01,27,08,33,-2.00
2008,01,27,08,34,-2.00
2008,01,27,08,35,-2.00
2008,01,27,08,36,-2.00
2008,01,27,08,37,-2.00
2008,01,27,08,38,-1.90
2008,01,27,08,39,-2.00
2008,01,27,08,40,-2.00
2008,01,27,08,41,-2.00
2008,01,27,08,42,-2.10
2008,01,27,08,43,-2.10
2008,01,27,08,44,-2.10
2008,01,27,08,45,-2.10
2008,01,27,08,46,-2.10
2008,01,27,08,47,-2.10
2008,01,27,08,48,-2.00
2008,01,27,08,49,-2.00
2008,01,27,08,50,-2.00
2008,01,27,08,51,-1.90
2008,01,27,08,52,-1.90
2008,01,27,08,53,-1.90
2008,01,27,08,54,-1.80
2008,01,27,08,55,-1.80
2008,01,27,08,56,-1.80
2008,01,27,08,57,-1.70
2008,01,27,08,58,-1.70
2008,01,27,08,59,-1.60
2008,01,27,09,00,-1.60
2008,01,27,09,01,-1.60
2008,01,27,09,02,-1.50
2008,01,27,09,03,-1.50
2008,01,27,09,04,-1.40
2008,01,27,09,05,-1.30
2008,01,27,09,06,-1.30
2008,01,27,09,07,-1.30
2008,01,27,09,08,-1.20
2008,01,27,09,09,-1.20
2008,01,27,09,10,-1.20
2008,01,27,09,11,-1.20
2008,01,27,09,12,-1.20
2008,01,27,09,13,-1.10
2008,01,27,09,14,-1.10
2008,01,27,09,15,-1.10
2008,01,27,09,16,-1.10
2008,01,27,09,17,-1.10
2008,01,27,09,18,-1.10
2008,01,27,09,19,-1.10
2008,01,27,09,20,-1.10
2008,01,27,09,21,-1.10
2008,01,27,09,22,-1.00
2008,01,27,09,23,-1.00
2008,01,27,09,24,-0.90
2008,01,27,09,25,-0.90
2008,01,27,09,26,-0.80
2008,01,27,09,27,-0.70
2008,01,27,09,28,-0.70
2008,01,27,09,29,-0.70
2008,01,27,09,30,-0.60
2008,01,27,09,31,-0.50
2008,01,27,09,32,-0.40
2008,01,27,09,33,-0.20
2008,01,27,09,34,0.00
2008,01,27,09,35,0.10
2008,01,27,09,36,0.20
2008,01,27,09,37,0.30
2008,01,27,09,38,0.30
2008,01,27,09,39,0.40
2008,01,27,09,40,0.50
2008,01,27,09,41,0.60
2008,01,27,09,42,0.70
2008,01,27,09,43,0.80
2008,01,27,09,44,0.90
2008,01,27,09,45,0.90
2008,01,27,09,46,1.00
2008,01,27,09,47,1.00
2008,01,27,09,48,1.10
2008,01,27,09,49,1.20
2008,01,27,09,50,1.30
2008,01,27,09,51,1.30
2008,01,27,09,52,1.50
2008,01,27,09,53,1.70
2008,01,27,09,54,1.80
2008,01,27,09,55,1.90
2008,01,27,09,56,1.90
2008,01,27,09,57,2.00
2008,01,27,09,58,2.00
2008,01,27,09,59,2.10
2008,01,27,10,00,2.10
2008,01,27,10,01,2.10
2008,01,27,10,02,2.20
2008,01,27,10,03,2.20
2008,01,27,10,04,2.20
2008,01,27,10,05,2.20
2008,01,27,10,06,2.20
2008,01,27,10,07,2.20
2008,01,27,10,08,2.30
2008,01,27,10,09,2.30
2008,01,27,10,10,2.30
2008,01,27,10,11,2.30
2008,01,27,10,12,2.40
2008,01,27,10,13,2.40
2008,01,27,10,14,2.40
2008,01,27,10,15,2.50
2008,01,27,10,16,2.50
2008,01,27,10,17,2.50
2008,01,27,10,18,2.60
2008,01,27,10,19,2.60
2008,01,27,10,20,2.60
2008,01,27,10,21,2.60
2008,01,27,10,22,2.60
2008,01,27,10,23,2.70
2008,01,27,10,24,2.70
2008,01,27,10,25,2.70
2008,01,27,10,26,2.70
2008,01,27,10,27,2.70
2008,01,27,10,28,2.70
2008,01,27,10,29,2.70
2008,01,27,10,30,2.70
2008,01,27,10,31,2.70
2008,01,27,10,32,2.70
2008,01,27,10,33,2.80
2008,01,27,10,34,2.80
2008,01,27,10,35,2.80
2008,01,27,10,36,2.80
2008,01,27,10,37,2.80
2008,01,27,10,38,2.80
2008,01,27,10,39,2.80
2008,01,27,10,40,2.80
2008,01,27,10,41,2.80
2008,01,27,10,42,2.70
2008,01,27,10,43,2.70
2008,01,27,10,44,2.70
2008,01,27,10,45,2.70
2008,01,27,10,46,2.80
2008,01,27,10,47,2.80
2008,01,27,10,48,2.80
2008,01,27,10,49,2.80
2008,01,27,10,50,2.80
2008,01,27,10,51,2.80
2008,01,27,10,52,2.80
2008,01,27,10,53,2.90
2008,01,27,10,54,2.90
2008,01,27,10,55,2.90
2008,01,27,10,56,3.00
2008,01,27,10,57,3.00
2008,01,27,10,58,3.10
2008,01,27,10,59,3.10
2008,01,27,11,00,3.10
2008,01,27,11,01,3.10
2008,01,27,11,02,3.10
2008,01,27,11,03,3.10
2008,01,27,11,04,3.20
2008,01,27,11,05,3.20
2008,01,27,11,06,3.20
2008,01,27,11,07,3.20
2008,01,27,11,08,3.20
2008,01,27,11,09,3.10
2008,01,27,11,10,3.10
2008,01,27,11,11,3.10
2008,01,27,11,12,3.00
2008,01,27,11,13,3.00
2008,01,27,11,14,3.00
2008,01,27,11,15,3.00
2008,01,27,11,16,3.00
2008,01,27,11,17,3.10
2008,01,27,11,18,3.10
2008,01,27,11,19,3.10
2008,01,27,11,20,3.10
2008,01,27,11,21,3.20
2008,01,27,11,22,3.20
2008,01,27,11,23,3.20
2008,01,27,11,24,3.10
2008,01,27,11,25,3.10
2008,01,27,11,26,3.10
2008,01,27,11,27,3.00
2008,01,27,11,28,3.00
2008,01,27,11,29,2.90
2008,01,27,11,30,2.90
2008,01,27,11,31,2.80
2008,01,27,11,32,2.80
2008,01,27,11,33,2.70
2008,01,27,11,34,2.70
2008,01,27,11,35,2.70
2008,01,27,11,36,2.60
2008,01,27,11,37,2.60
2008,01,27,11,38,2.60
2008,01,27,11,39,2.60
2008,01,27,11,40,2.60
2008,01,27,11,41,2.60
2008,01,27,11,42,2.60
2008,01,27,11,43,2.60
2008,01,27,11,44,2.60
2008,01,27,11,45,2.60
2008,01,27,11,46,2.60
2008,01,27,11,47,2.60
2008,01,27,11,48,2.60
2008,01,27,11,49,2.60
2008,01,27,11,50,2.60
2008,01,27,11,51,2.60
2008,01,27,11,52,2.60
2008,01,27,11,53,2.60
2008,01,27,11,54,2.60
2008,01,27,11,55,2.60
2008,01,27,11,56,2.60
2008,01,27,11,57,2.60
2008,01,27,11,58,2.50
2008,01,27,11,59,2.50
2008,01,27,12,00,2.60
2008,01,27,12,01,2.60
2008,01,27,12,02,2.60
2008,01,27,12,03,2.60
2008,01,27,12,04,2.60
2008,01,27,12,05,2.60
2008,01,27,12,06,2.60
2008,01,27,12,07,2.60
2008,01,27,12,08,2.50
2008,01,27,12,09,2.50
2008,01,27,12,10,2.50
2008,01,27,12,11,2.50
2008,01,27,12,12,2.40
2008,01,27,12,13,2.40
2008,01,27,12,14,2.40
2008,01,27,12,15,2.40
2008,01,27,12,16,2.50
2008,01,27,12,17,2.50
2008,01,27,12,18,2.50
2008,01,27,12,19,2.50
2008,01,27,12,20,2.50
2008,01,27,12,21,2.50
2008,01,27,12,22,2.60
2008,01,27,12,23,2.60
2008,01,27,12,24,2.60
2008,01,27,12,25,2.60
2008,01,27,12,26,2.60
2008,01,27,12,27,2.60
2008,01,27,12,28,2.60
2008,01,27,12,29,2.60
2008,01,27,12,30,2.60
2008,01,27,12,31,2.50
2008,01,27,12,32,2.50
2008,01,27,12,33,2.50
2008,01,27,12,34,2.50
2008,01,27,12,35,2.50
2008,01,27,12,36,2.50
2008,01,27,12,37,2.50
2008,01,27,12,38,2.60
2008,01,27,12,39,2.60
2008,01,27,12,40,2.70
2008,01,27,12,41,2.80
2008,01,27,12,42,2.90
2008,01,27,12,43,3.00
2008,01,27,12,44,3.00
2008,01,27,12,45,3.10
2008,01,27,12,46,3.20
2008,01,27,12,47,3.20
2008,01,27,12,48,3.10
2008,01,27,12,49,3.20
2008,01,27,12,50,3.20
2008,01,27,12,51,3.20
2008,01,27,12,52,3.20
2008,01,27,12,53,3.10
2008,01,27,12,54,3.10
2008,01,27,12,55,3.10
2008,01,27,12,56,3.10
2008,01,27,12,57,3.10
2008,01,27,12,58,3.10
2008,01,27,12,59,3.10
2008,01,27,13,00,3.10
2008,01,27,13,01,3.10
2008,01,27,13,02,3.10
2008,01,27,13,03,3.10
2008,01,27,13,04,3.10
2008,01,27,13,05,3.10
2008,01,27,13,06,3.20
2008,01,27,13,07,3.30
2008,01,27,13,08,3.40
2008,01,27,13,09,3.50
2008,01,27,13,10,3.50
2008,01,27,13,11,3.60
2008,01,27,13,12,3.60
2008,01,27,13,13,3.60
2008,01,27,13,14,3.60
2008,01,27,13,15,3.60
2008,01,27,13,16,3.60
2008,01,27,13,17,3.60
2008,01,27,13,18,3.70
2008,01,27,13,19,3.80
2008,01,27,13,20,3.80
2008,01,27,13,21,3.80
2008,01,27,13,22,3.90
2008,01,27,13,23,3.90
2008,01,27,13,24,3.90
2008,01,27,13,25,3.90
2008,01,27,13,26,3.80
2008,01,27,13,27,3.70
2008,01,27,13,28,3.60
2008,01,27,13,29,3.60
2008,01,27,13,30,3.60
2008,01,27,13,31,3.60
2008,01,27,13,32,3.60
2008,01,27,13,33,3.50
2008,01,27,13,34,3.50
2008,01,27,13,35,3.40
2008,01,27,13,36,3.40
2008,01,27,13,37,3.40
2008,01,27,13,38,3.30
2008,01,27,13,39,3.30
2008,01,27,13,40,3.30
2008,01,27,13,41,3.40
2008,01,27,13,42,3.40
2008,01,27,13,43,3.40
2008,01,27,13,44,3.50
2008,01,27,13,45,3.50
2008,01,27,13,46,3.50
2008,01,27,13,47,3.50
2008,01,27,13,48,3.60
2008,01,27,13,49,3.50
2008,01,27,13,50,3.50
2008,01,27,13,51,3.50
2008,01,27,13,52,3.40
2008,01,27,13,53,3.40
2008,01,27,13,54,3.30
2008,01,27,13,55,3.30
2008,01,27,13,56,3.20
2008,01,27,13,57,3.20
2008,01,27,13,58,3.00
2008,01,27,13,59,2.90
2008,01,27,14,00,2.80
2008,01,27,14,01,2.80
2008,01,27,14,02,2.70
2008,01,27,14,03,2.70
2008,01,27,14,04,2.60
2008,01,27,14,05,2.60
2008,01,27,14,06,2.50
2008,01,27,14,07,2.50
2008,01,27,14,08,2.40
2008,01,27,14,09,2.30
2008,01,27,14,10,2.30
2008,01,27,14,11,2.30
2008,01,27,14,12,2.30
2008,01,27,14,13,2.20
2008,01,27,14,14,2.20
2008,01,27,14,15,2.10
2008,01,27,14,16,2.10
2008,01,27,14,17,2.10
2008,01,27,14,18,2.00
2008,01,27,14,19,2.00
2008,01,27,14,20,1.90
2008,01,27,14,21,1.90
2008,01,27,14,22,1.80
2008,01,27,14,23,1.80
2008,01,27,14,24,1.70
2008,01,27,14,25,1.70
2008,01,27,14,26,1.60
2008,01,27,14,27,1.60
2008,01,27,14,28,1.50
2008,01,27,14,29,1.50
2008,01,27,14,30,1.40
2008,01,27,14,31,1.40
2008,01,27,14,32,1.30
2008,01,27,14,33,1.30
2008,01,27,14,34,1.30
2008,01,27,14,35,1.30
2008,01,27,14,36,1.30
2008,01,27,14,37,1.30
2008,01,27,14,38,1.20
2008,01,27,14,39,1.20
2008,01,27,14,40,1.10
2008,01,27,14,41,1.10
2008,01,27,14,42,1.00
2008,01,27,14,43,1.00
2008,01,27,14,44,0.90
2008,01,27,14,45,0.90
2008,01,27,14,46,0.80
2008,01,27,14,47,0.80
2008,01,27,14,48,0.70
2008,01,27,14,49,0.70
2008,01,27,14,50,0.70
2008,01,27,14,51,0.70
2008,01,27,14,52,0.70
2008,01,27,14,53,0.60
2008,01,27,14,54,0.60
2008,01,27,14,55,0.60
2008,01,27,14,56,0.60
2008,01,27,14,57,0.60
2008,01,27,14,58,0.60
2008,01,27,14,59,0.60
2008,01,27,15,00,0.60
2008,01,27,15,01,0.60
2008,01,27,15,02,0.60
2008,01,27,15,03,0.60
2008,01,27,15,04,0.60
2008,01,27,15,05,0.60
2008,01,27,15,06,0.60
2008,01,27,15,07,0.60
2008,01,27,15,08,0.60
2008,01,27,15,09,0.60
2008,01,27,15,10,0.60
2008,01,27,15,11,0.60
2008,01,27,15,12,0.60
2008,01,27,15,13,0.60
2008,01,27,15,14,0.60
2008,01,27,15,15,0.60
2008,01,27,15,16,0.60
2008,01,27,15,17,0.60
2008,01,27,15,18,0.50
2008,01,27,15,19,0.50
2008,01,27,15,20,0.50
2008,01,27,15,21,0.50
2008,01,27,15,22,0.50
2008,01,27,15,23,0.50
2008,01,27,15,24,0.50
2008,01,27,15,25,0.50
2008,01,27,15,26,0.50
2008,01,27,15,27,0.40
2008,01,27,15,28,0.40
2008,01,27,15,29,0.40
2008,01,27,15,30,0.40
2008,01,27,15,31,0.40
2008,01,27,15,32,0.40
2008,01,27,15,33,0.40
2008,01,27,15,34,0.40
2008,01,27,15,35,0.40
2008,01,27,15,36,0.40
2008,01,27,15,37,0.40
2008,01,27,15,38,0.40
2008,01,27,15,39,0.40
2008,01,27,15,40,0.40
2008,01,27,15,41,0.40
2008,01,27,15,42,0.40
2008,01,27,15,43,0.40
2008,01,27,15,44,0.40
2008,01,27,15,45,0.40
2008,01,27,15,46,0.40
2008,01,27,15,47,0.40
2008,01,27,15,48,0.40
2008,01,27,15,49,0.40
2008,01,27,15,50,0.40
2008,01,27,15,51,0.40
2008,01,27,15,52,0.40
2008,01,27,15,53,0.40
2008,01,27,15,54,0.40
2008,01,27,15,55,0.40
2008,01,27,15,56,0.40
2008,01,27,15,57,0.40
2008,01,27,15,58,0.40
2008,01,27,15,59,0.40
2008,01,27,16,00,0.40
2008,01,27,16,01,0.40
2008,01,27,16,02,0.40
2008,01,27,16,03,0.40
2008,01,27,16,04,0.40
2008,01,27,16,05,0.40
2008,01,27,16,06,0.40
2008,01,27,16,07,0.40
2008,01,27,16,08,0.40
2008,01,27,16,09,0.40
2008,01,27,16,10,0.40
2008,01,27,16,11,0.40
2008,01,27,16,12,0.40
2008,01,27,16,13,0.40
2008,01,27,16,14,0.40
2008,01,27,16,15,0.40
2008,01,27,16,16,0.40
2008,01,27,16,17,0.40
2008,01,27,16,18,0.40
2008,01,27,16,19,0.40
2008,01,27,16,20,0.40
2008,01,27,16,21,0.40
2008,01,27,16,22,0.40
2008,01,27,16,23,0.40
2008,01,27,16,24,0.40
2008,01,27,16,25,0.40
2008,01,27,16,26,0.40
2008,01,27,16,27,0.40
2008,01,27,16,28,0.40
2008,01,27,16,29,0.40
2008,01,27,16,30,0.40
2008,01,27,16,31,0.40
2008,01,27,16,32,0.40
2008,01,27,16,33,0.40
2008,01,27,16,34,0.40
2008,01,27,16,35,0.40
2008,01,27,16,36,0.40
2008,01,27,16,37,0.40
2008,01,27,16,38,0.40
2008,01,27,16,39,0.40
2008,01,27,16,40,0.40
2008,01,27,16,41,0.40
2008,01,27,16,42,0.40
2008,01,27,16,43,0.30
2008,01,27,16,44,0.40
2008,01,27,16,45,0.40
2008,01,27,16,46,0.40
2008,01,27,16,47,0.40
2008,01,27,16,48,0.40
2008,01,27,16,49,0.40
2008,01,27,16,50,0.30
2008,01,27,16,51,0.30
2008,01,27,16,52,0.30
2008,01,27,16,53,0.30
2008,01,27,16,54,0.30
2008,01,27,16,55,0.30
2008,01,27,16,56,0.30
2008,01,27,16,57,0.30
2008,01,27,16,58,0.30
2008,01,27,16,59,0.30
2008,01,27,17,00,0.20
2008,01,27,17,01,0.20
2008,01,27,17,02,0.20
2008,01,27,17,03,0.20
2008,01,27,17,04,0.20
2008,01,27,17,05,0.20
2008,01,27,17,06,0.20
2008,01,27,17,07,0.10
2008,01,27,17,08,0.10
2008,01,27,17,09,0.10
2008,01,27,17,10,0.10
2008,01,27,17,11,0.10
2008,01,27,17,12,0.10
2008,01,27,17,13,0.10
2008,01,27,17,14,0.00
2008,01,27,17,15,0.00
2008,01,27,17,16,0.00
2008,01,27,17,17,0.00
2008,01,27,17,18,0.00
2008,01,27,17,19,-0.10
2008,01,27,17,20,-0.10
2008,01,27,17,21,-0.10
2008,01,27,17,22,-0.10
2008,01,27,17,23,-0.10
2008,01,27,17,24,-0.10
2008,01,27,17,25,-0.10
2008,01,27,17,26,-0.20
2008,01,27,17,27,-0.20
2008,01,27,17,28,-0.20
2008,01,27,17,29,-0.20
2008,01,27,17,30,-0.20
2008,01,27,17,31,-0.20
2008,01,27,17,32,-0.20
2008,01,27,17,33,-0.20
2008,01,27,17,34,-0.20
2008,01,27,17,35,-0.30
2008,01,27,17,36,-0.30
2008,01,27,17,37,-0.30
2008,01,27,17,38,-0.30
2008,01,27,17,39,-0.30
2008,01,27,17,40,-0.30
2008,01,27,17,41,-0.30
2008,01,27,17,42,-0.30
2008,01,27,17,43,-0.30
2008,01,27,17,44,-0.30
2008,01,27,17,45,-0.30
2008,01,27,17,46,-0.30
2008,01,27,17,47,-0.30
2008,01,27,17,48,-0.40
2008,01,27,17,49,-0.40
2008,01,27,17,50,-0.40
2008,01,27,17,51,-0.40
2008,01,27,17,52,-0.40
2008,01,27,17,53,-0.40